TimeMDT,TemperatureF,Dew PointF,Humidity,Sea Level PressureIn,VisibilityMPH,Wind Direction,Wind SpeedMPH,Gust SpeedMPH,PrecipitationIn,Events,Conditions,WindDirDegrees,DateUTC
12:53 AM,32.0,30.0,92,30.18,10.0,SSW,3.5,-,N/A,,Clear,210,2013-03-28 06:53:00
1:53 AM,33.1,30.0,89,30.16,10.0,South,5.8,-,N/A,,Clear,170,2013-03-28 07:53:00
2:53 AM,30.9,28.9,92,30.16,10.0,Calm,Calm,-,N/A,,Clear,0,2013-03-28 08:53:00
3:53 AM,32.0,28.9,88,30.14,10.0,South,5.8,-,N/A,,Clear,180,2013-03-28 09:53:00
4:53 AM,32.0,28.9,88,30.14,10.0,SSW,4.6,-,N/A,,Clear,210,2013-03-28 10:53:00
5:53 AM,33.1,30.0,89,30.13,10.0,SSW,5.8,-,N/A,,Partly Cloudy,210,2013-03-28 11:53:00
6:53 AM,33.1,28.9,85,30.14,9.0,SSW,8.1,-,N/A,,Scattered Clouds,200,2013-03-28 12:53:00
7:53 AM,37.9,32.0,79,30.17,10.0,Calm,Calm,-,N/A,,Partly Cloudy,0,2013-03-28 13:53:00
8:53 AM,44.1,33.1,65,30.17,10.0,SSW,8.1,-,N/A,,Scattered Clouds,200,2013-03-28 14:53:00
9:53 AM,46.0,34.0,63,30.16,10.0,SSW,13.8,-,N/A,,Partly Cloudy,210,2013-03-28 15:53:00
10:53 AM,52.0,34.0,50,30.15,10.0,South,17.3,23.0,N/A,,Partly Cloudy,190,2013-03-28 16:53:00
11:53 AM,57.0,35.1,44,30.13,10.0,South,18.4,24.2,N/A,,Clear,180,2013-03-28 17:53:00
12:53 PM,57.9,32.0,37,30.12,10.0,SSW,15.0,23.0,N/A,,Clear,210,2013-03-28 18:53:00
1:53 PM,60.1,33.1,36,30.09,10.0,SW,13.8,24.2,N/A,,Clear,220,2013-03-28 19:53:00
2:53 PM,62.1,34.0,35,30.07,10.0,SW,12.7,25.3,N/A,,Clear,220,2013-03-28 20:53:00
3:53 PM,63.0,34.0,34,30.05,10.0,SSW,16.1,-,N/A,,Clear,200,2013-03-28 21:53:00
4:53 PM,63.0,34.0,34,30.05,10.0,WSW,9.2,-,N/A,,Clear,240,2013-03-28 22:53:00
5:53 PM,62.1,36.0,38,30.05,10.0,SSW,9.2,-,N/A,,Clear,200,2013-03-28 23:53:00
6:53 PM,55.0,37.0,51,30.08,10.0,South,6.9,-,N/A,,Clear,170,2013-03-29 00:53:00
7:53 PM,48.9,36.0,61,30.09,10.0,SSE,4.6,-,N/A,,Clear,150,2013-03-29 01:53:00
8:53 PM,44.1,36.0,73,30.12,10.0,SE,4.6,-,N/A,,Clear,140,2013-03-29 02:53:00
9:53 PM,42.1,35.1,76,30.13,10.0,ESE,4.6,-,N/A,,Clear,110,2013-03-29 03:53:00
10:53 PM,39.0,34.0,82,30.12,10.0,SSE,9.2,-,N/A,,Clear,150,2013-03-29 04:53:00
11:53 PM,37.9,33.1,83,30.12,10.0,SE,9.2,-,N/A,,Clear,140,2013-03-29 05:53:00